Regional Weather Roundup
Issued by NWS

Home | Current Version | Previous Version | Text Only | Print | Product List | Glossary Off
Versions: 1 2 3 4 5 6 7 8 9 10 11 12 13 14 15 16 17 18 19 20 21 22 23 24 25 26 27 28 29 30 31 32 33 34 35 36 37 38 39 40 41 42 43 44 45 46 47 48 49 50

000
ASUS43 KFSD 020410
RWRSD

WEATHER ROUNDUP FOR SOUTH DAKOTA
NATIONAL WEATHER SERVICE SIOUX FALLS SD
1100 PM CDT MON SEP 01 2014

NOTE: "FAIR" INDICATES FEW OR NO CLOUDS BELOW 12,000 FEET WITH NO
SIGNIFICANT WEATHER AND/OR OBSTRUCTIONS TO VISIBILITY.


SDZ001>005-009-010-012>017-020500-
NORTHWEST AND NORTH CENTRAL SOUTH DAKOTA

CITY           SKY/WX    TMP DP  RH WIND       PRES   REMARKS
BUFFALO          N/A     54  46  74 W6        29.89R
FAITH            N/A     54  47  77 SW5       29.93S
MOBRIDGE       PTCLDY    56  53  90 N7        29.87R
$$

SDZ012>016-024>037-041>051-057-063-072>074-020500-
SOUTHWEST AND SOUTH CENTRAL SOUTH DAKOTA

CITY           SKY/WX    TMP DP  RH WIND       PRES   REMARKS
RAPID CTY ARPT CLEAR     53  48  83 W6        30.00R
PIERRE         MOCLDY    59  52  77 W5        29.90R
CUSTER         CLEAR     45  37  73 W6        30.09R
ELLSWORTH AFB  CLEAR     54  48  79 W5        30.00R
PHILIP         CLEAR     55  51  86 W7        29.95R
PINE RIDGE     CLEAR     48  47  96 MISG      30.03R
WINNER         FAIR      58  55  90 W10       29.95R
$$

SDZ004>011-016>023-039-040-020500-
NORTHEAST SOUTH DAKOTA

CITY           SKY/WX    TMP DP  RH WIND       PRES   REMARKS
ABERDEEN       CLOUDY    56  56 100 S6        29.85S
WATERTOWN      CLOUDY    60  52  74 W7        29.86S
SISSETON         N/A     63  55  75 W6        29.83S
$$

SDZ017-020-022-023-036>040-048>070-020500-
SOUTHEAST SOUTH DAKOTA

CITY           SKY/WX    TMP DP  RH WIND       PRES   REMARKS
SIOUX FALLS    CLOUDY    64  56  75 W8        29.89R
HURON          CLOUDY    60  55  83 W9        29.87S
CHAMBERLAIN    CLOUDY    58  55  89 W7        29.91R
MITCHELL       CLOUDY    61  58  90 SW7       29.89F
YANKTON        CLOUDY    59  55  88 W9        29.95R
$$

ABBREVIATIONS USED IN REMARKS
   TC - TEMPERATURE IN CELSIUS
  WCI - WIND CHILL INDEX
   HX - HEAT INDEX
  VSB - VISIBILITY



USA.gov is the U.S. government's official web portal to all federal, state and local government web resources and services.